Weather History for Anchorage Merrill, AK

Change the Weather History Date:

Tuesday, September 11, 2012

  Actual Average Record
Temperature  
Mean Temperature 44 °F -  
Max Temperature 55 °F 56 °F 66 °F (1997)
Min Temperature 34 °F 41 °F 34 °F (2012)
Degree Days  
Heating Degree Days 20    
Moisture  
Dew Point 34 °F    
Average Humidity 65    
Maximum Humidity 82    
Minimum Humidity 43    
Precipitation  
Precipitation 0.00 in - - ()
Sea Level Pressure  
Sea Level Pressure 29.82 in    
Wind  
Wind Speed 3 mph (WNW)    
Max Wind Speed 8 mph    
Max Gust Speed -    
Visibility 10 miles    
Events Rain    
Averages and records for this station are not official NWS values.
T = Trace of Precipitation, MM = Missing Value Source: NWS Daily Summary

Daily Weather History Graph

Daily Weather History Graph

Search for Another Location

Airport:

Trip Planner

Search our weather history database for the weather conditions in past years. The results will help you decide how hot, cold, wet, or windy it might be!

Date:

Astronomy

Sep. 11, 2012 Rise Set
Actual Time 7:17 AM AKDT 8:32 PM AKDT
Civil Twilight 6:33 AM AKDT 9:16 PM AKDT
Nautical Twilight 5:37 AM AKDT 10:11 PM AKDT
Astronomical Twilight 4:30 AM AKDT 11:17 PM AKDT
Moon 1:40 AM AKDT (9/11) 6:41 PM AKDT (9/11)
Length of Visible Light 14h 43m
Length of Day
13h 14m
Waning Crescent, 20% of the Moon is Illuminated
Sep 11
Waning Crescent
Sep 15
New
Sep 22
First Quarter
Sep 29
Full
Oct 7
Last Quarter

Hourly Weather History & Observations

Time (AKDT) Temp. Windchill Dew Point Humidity Pressure Visibility Wind Dir Wind Speed Gust Speed Precip Events Conditions
12:53 AM 41.0 °F 39.0 °F 33.1 °F 73% 29.83 in 10.0 mi NE 3.5 mph - N/A   Scattered Clouds
1:53 AM 39.9 °F - 32.0 °F 73% 29.84 in 10.0 mi Calm Calm - N/A   Partly Cloudy
2:53 AM 37.9 °F - 32.0 °F 79% 29.84 in 10.0 mi Calm Calm - N/A   Partly Cloudy
3:53 AM 36.0 °F - 30.0 °F 79% 29.84 in 10.0 mi Calm Calm - N/A   Clear
4:53 AM 37.0 °F - 30.9 °F 79% 29.86 in 10.0 mi Calm Calm - N/A   Clear
5:53 AM 35.1 °F 32.2 °F 30.0 °F 82% 29.86 in 10.0 mi SSE 3.5 mph - N/A   Clear
6:53 AM 34.0 °F - 28.9 °F 82% 29.85 in 10.0 mi Calm Calm - N/A   Clear
7:53 AM 34.0 °F - 28.9 °F 82% 29.85 in 10.0 mi Calm Calm - N/A   Clear
8:53 AM 37.0 °F - 30.9 °F 79% 29.85 in 10.0 mi Calm Calm - N/A   Clear
9:53 AM 43.0 °F - 30.9 °F 62% 29.86 in 10.0 mi Calm Calm - N/A   Clear
10:53 AM 46.0 °F 43.9 °F 34.0 °F 63% 29.86 in 10.0 mi NW 4.6 mph - N/A   Scattered Clouds
11:53 AM 50.0 °F - 33.1 °F 52% 29.86 in 10.0 mi Calm Calm - N/A   Mostly Cloudy
12:53 PM 51.1 °F - 33.1 °F 50% 29.86 in 10.0 mi North 4.6 mph - N/A   Overcast
1:53 PM 53.1 °F - 30.9 °F 43% 29.84 in 10.0 mi North 6.9 mph - N/A   Overcast
2:53 PM 53.1 °F - 34.0 °F 48% 29.83 in 10.0 mi NNW 5.8 mph - N/A   Overcast
3:53 PM 54.0 °F - 37.9 °F 55% 29.81 in 10.0 mi West 6.9 mph - N/A   Overcast
4:53 PM 55.9 °F - 37.9 °F 51% 29.79 in 10.0 mi WSW 6.9 mph - N/A   Overcast
5:53 PM 53.1 °F - 37.9 °F 57% 29.78 in 10.0 mi West 8.1 mph - N/A   Overcast
6:53 PM 53.1 °F - 39.9 °F 61% 29.77 in 10.0 mi West 4.6 mph - N/A   Overcast
7:53 PM 51.1 °F - 39.9 °F 66% 29.76 in 10.0 mi WSW 4.6 mph - N/A   Mostly Cloudy
8:53 PM 50.0 °F - 37.9 °F 63% 29.76 in 10.0 mi West 3.5 mph - N/A   Overcast
9:53 PM 50.0 °F - 36.0 °F 59% 29.75 in 10.0 mi NW 3.5 mph - N/A   Overcast
10:53 PM 48.0 °F - 36.0 °F 63% 29.74 in 10.0 mi WNW 4.6 mph - N/A   Overcast
11:53 PM 48.0 °F - 37.0 °F 66% 29.74 in 10.0 mi South 3.5 mph - 0.00 in Rain Light Rain